CW8668 Weather Reports


time (UTC)temp
F
wind
direction
speed
knots
gust
knots
rain 1hr
in
rain 24hr
in
rain mn
in
humidity
%
barometer
mb
20260504081517 54 0.0 2.6 0.00 0.07 0.07 92 1009.8
20260504050016 50 0.0 1.7 0.00 0.02 0.01 92 1009.7
20260504044536 50 45 0.9 2.6 0.00 0.03 0.01 92 1009.5
20260504043016 50 0.0 1.7 0.00 0.03 0.01 92 1009.5
20260504041516 50 0.0 0.9 0.00 0.04 0.01 92 1009.7
20260504040016 50 0.0 0.9 0.00 0.04 0.01 91 1009.4
20260504034516 50 0.0 1.7 0.00 0.04 0.01 91 1009.5
20260504033036 50 0.0 1.7 0.00 0.06 0.01 91 1009.5
20260504031536 51 0.0 0.9 0.01 0.06 0.01 91 1009.4
20260504030036 51 0.0 0.9 0.01 0.07 0.01 91 1009.2
20260504024516 51 0.0 0.9 0.01 0.08 0.01 90 1009.5
20260504023016 51 0.0 0.9 0.01 0.08 0.01 90 1009.4
20260504021536 52 0.0 0.0 0.00 0.07 0.00 90 1009.2
20260504020016 52 0.0 0.0 0.00 0.07 0.00 90 1009.4
20260504014516 52 0.0 0.0 0.00 0.07 0.00 90 1009.5
20260504013036 52 0.0 0.0 0.00 0.07 0.00 90 1009.7
20260504011516 52 0.0 0.9 0.00 0.07 0.00 89 1009.9
20260504010056 52 0.0 0.9 0.00 0.07 0.00 89 1009.9
20260504004516 52 0.0 1.7 0.00 0.07 0.00 89 1009.7
20260504003036 52 0.0 0.0 0.00 0.07 0.00 89 1009.9
20260504001516 52 0.0 0.0 0.00 0.07 0.00 89 1009.8
20260504000016 52 0.0 0.9 0.00 0.07 0.07 89 1010.3
20260503234537 52 0.0 0.9 0.00 0.10 0.07 88 1010.4
20260503233016 52 0.0 1.7 0.00 0.10 0.07 88 1010.5
20260503231516 52 0.0 1.7 0.00 0.11 0.07 87 1010.6
20260503230016 52 0.0 0.0 0.00 0.11 0.07 87 1010.5
20260503224516 52 0.0 1.7 0.00 0.11 0.07 87 1010.6
20260503223016 52 45 0.9 1.7 0.00 0.11 0.07 86 1010.7
20260503221516 52 45 0.9 1.7 0.00 0.11 0.07 86 1010.8
20260503220036 52 0.0 1.7 0.00 0.11 0.07 85 1011.4
20260503214516 52 45 1.7 5.2 0.00 0.11 0.07 85 1011.3
20260503213016 52 45 3.5 6.1 0.00 0.11 0.07 85 1011.2
20260503211516 52 45 2.6 6.1 0.00 0.11 0.07 84 1011.3
20260503210036 52 45 0.9 4.3 0.00 0.11 0.07 83 1011.7
20260503204516 53 45 2.6 4.3 0.00 0.11 0.07 81 1011.8
20260503203016 53 45 2.6 5.2 0.00 0.11 0.07 78 1011.7
20260503201516 54 23 3.5 6.1 0.00 0.11 0.07 75 1011.5
20260503200016 55 203 0.9 2.6 0.00 0.11 0.07 72 1011.5
20260503194536 55 203 0.9 4.3 0.00 0.11 0.07 70 1011.2
20260503193016 56 68 1.7 7.0 0.00 0.11 0.07 69 1010.9
20260503191516 56 45 1.7 7.0 0.00 0.11 0.07 69 1010.8
20260503190016 56 68 2.6 5.2 0.00 0.11 0.07 69 1010.7
20260503184516 56 68 3.5 7.0 0.00 0.11 0.07 69 1010.7
20260503183016 57 113 2.6 7.0 0.00 0.11 0.07 71 1010.5
20260503181515 57 158 0.9 7.0 0.00 0.11 0.07 73 1010.5
20260503180016 57 225 0.9 2.6 0.00 0.11 0.07 73 1010.6
20260503174516 58 203 0.9 2.6 0.00 0.11 0.07 72 1010.6
20260503173015 58 270 0.9 1.7 0.00 0.11 0.07 71 1010.6
20260503171536 58 0.0 1.7 0.00 0.11 0.07 70 1010.6